#timestamp,LO_Frequency,Hit,StdDev 
1657378815.6,286047001.1,N
1657378835.4,286046999.8,N
1657378855.3,286047000.4,N
1657378875.1,286047000.1,N
1657378895.8,286047000.8,N
1657378915.7,286046998.5,N
1657378935.5,286046998.5,N
1657378955.4,286047000.9,N
1657378975.2,286047000.7,N
1657378995.0,286046998.4,N
1657378995.9,286046998.4,N
1657379015.8,286046999.3,N
1657379035.6,286046999.4,N
1657379055.5,286046998.3,N
1657379075.4,286046998.7,N
1657379095.2,286046998.8,N
1657379115.1,286046998.6,N
1657379116.0,286046998.6,N
1657379135.8,286047000.5,N
1657379155.6,286047001.1,N
1657379175.5,286046998.3,N
1657379195.3,286046998.6,N
1657379215.1,286046999.3,N
1657379235.9,286047001.2,N
1657379255.7,286047001.2,N
1657379275.6,286047000.7,N
1657379295.4,286047001.2,N
1657379315.2,286046998.8,N
1657379335.1,286046998.8,N
1657379336.0,286046998.8,N
1657379355.8,286046998.7,N
1657379375.6,286046998.3,N
1657379395.5,286046998.4,N
1657379415.3,286046999.4,N
1657379435.2,286046999.2,N
1657379455.9,286046999.4,N
1657379475.7,286046999.3,N
1657379495.6,286046999.1,N
1657379515.4,286046998.5,N
1657379535.2,286046998.3,N
1657379555.1,286047000.7,N
1657379556.0,286047000.7,N
1657379575.8,286047000.5,N
1657379595.7,286047000.2,N
1657379615.5,286046999.9,N
1657379635.3,286047000.6,N
1657379655.2,286047003.6,Y
1657379675.0,286047007.9,P
1657379675.9,286047007.9,N
1657379695.7,286047008.3,N
1657379715.6,286047007.4,N
1657379735.4,286047011.1,Y
1657379755.3,286047010.5,P
1657379775.1,286047010.1,P
1657379795.8,286047006.8,P
1657379815.7,286047004.8,N
1657379835.5,286047003.5,N
1657379855.4,286047003.4,N
1657379875.2,286047004.0,N
1657379895.0,286047001.7,N
1657379895.9,286047001.7,N
1657379915.8,286047002.4,N
1657379935.6,286046999.8,N
1657379955.4,286047001.1,N
1657379975.3,286047001.2,N
1657379995.1,286046998.5,N
1657380015.9,286046999.6,N
1657380035.7,286046998.8,N
1657380055.5,286046999.3,N
1657380075.4,286046996.5,N
1657380095.2,286046997.2,N
1657380115.0,286046997.1,N
1657380115.9,286046997.1,N
1657380135.8,286046996.8,N
1657380155.6,286046997.8,N
1657380175.5,286046997.7,N
1657380195.3,286046997.6,N
1657380215.1,286046998.0,N
1657380235.9,286046995.8,N
1657380255.7,286046997.6,N
1657380275.5,286046995.4,N
1657380295.4,286046995.1,N
1657380315.2,286046995.7,N
1657380335.1,286046995.8,N
1657380336.0,286046995.8,N
1657380355.8,286046996.1,N
1657380375.6,286046993.9,N
1657380395.5,286046993.5,N
1657380415.3,286046993.5,N
1657380435.2,286046993.5,N
1657380455.9,286046994.1,N
1657380475.7,286046992.0,Y
1657380495.6,286046996.1,P
1657380515.4,286046996.1,P
1657380535.2,286046996.7,P
1657380555.1,286046999.8,N
1657380556.0,286046999.8,N
1657380575.8,286047005.8,Y
1657380595.7,286047007.5,P
1657380615.5,286047003.3,N
1657380635.3,286047004.8,N
1657380655.2,286047010.1,N
1657380675.0,286047015.5,Y
1657380675.9,286047015.5,P
1657380695.8,286047010.8,N
1657380715.6,286047008.6,N
1657380735.4,286047006.1,N
1657380755.3,286047006.2,N
1657380775.1,286047006.2,N
1657380795.8,286047006.2,N
1657380815.7,286047006.5,N
1657380835.5,286047004.8,N
1657380855.4,286047002.9,N
1657380875.2,286047003.2,N
1657380895.0,286047004.2,N
1657380895.9,286047004.2,N
1657380915.8,286047004.2,N
1657380935.6,286047001.8,N
1657380955.4,286047000.2,N
1657380975.3,286046999.8,N
1657380995.1,286047001.2,N
1657381015.9,286046998.6,N
1657381035.7,286046998.6,N
1657381055.5,286046998.6,N
1657381075.4,286046999.2,N
1657381095.2,286046999.3,N
1657381115.0,286046999.5,N
1657381115.9,286046999.5,N
1657381135.8,286046996.5,N
1657381155.6,286046996.8,N
1657381175.5,286046997.1,N
1657381195.3,286046996.9,N
1657381215.1,286046997.7,N
1657381235.9,286046997.2,N
1657381255.7,286046997.1,N
1657381305.6,286046995.0,E
1657381315.5,286046996.6,N
1657381335.3,286047002.7,P
1657381355.2,286046999.7,N
1657381375.0,286047000.3,N
1657381375.9,286047000.3,N
1657381395.7,286047000.5,N
1657381415.6,286047000.4,N
1657381435.4,286047000.0,N
1657381455.3,286047000.3,N
1657381475.1,286047000.5,N
1657381476.0,286047000.5,N
1657381495.8,286046999.9,N
1657381515.7,286047000.7,N
1657381535.5,286047001.2,N
1657381555.3,286046999.4,N
1657381575.2,286046999.4,N
1657381595.0,286046999.3,N
1657381595.9,286046999.3,N
1657381615.8,286046999.4,N
1657381635.6,286046999.1,N
1657381655.4,286047001.2,N
1657381675.3,286046998.3,N
1657381695.1,286046998.4,N
1657381715.9,286046998.4,N
1657381735.7,286046998.9,N
1657381755.5,286046999.6,N
1657381775.4,286046996.6,N
1657381795.2,286046999.2,N
1657381815.0,286046997.0,N
1657381815.9,286046997.0,N
1657381835.8,286046997.1,N
1657381855.6,286046997.0,N
1657381875.5,286046997.0,N
1657381895.3,286046996.6,N
1657381915.1,286046997.6,N
1657381935.9,286046996.8,N
1657381955.7,286046997.4,N
1657381975.5,286046996.7,N
1657381995.4,286046996.7,N
1657382015.2,286046997.1,N
1657382035.1,286046996.8,N
1657382036.0,286046996.8,N
1657382055.8,286046997.8,N
1657382075.6,286046995.3,Y
1657382095.5,286046999.3,P
1657382115.3,286046999.1,N
1657382135.2,286046999.3,N
1657382155.9,286046998.9,N
1657382175.7,286046999.6,N
1657382195.6,286046999.2,N
1657382215.4,286046999.0,N
1657382235.2,286046998.7,Y
1657382255.1,286046998.4,P
1657382256.0,286046998.4,P
1657382275.8,286046998.3,P
1657382295.7,286046998.4,Y
1657382315.5,286047000.4,P
1657382335.3,286047000.4,N
1657382355.2,286047000.4,N
1657382375.0,286046999.9,N
1657382375.9,286046999.9,N
1657382395.8,286047002.8,Y
